Location: Carnetin
(48.9010°N, 2.7059°E)
Time: 18:31:37
(UTC+00:00)

SL-8 R/B - Pass Details

Date: 24 October 2021
Orbit: 656 x 667 km, 48.4° (Epoch: 07 December)

Event Time Altitude Azimuth Distance (km) Brightness Sun altitude
Rises 19:27:59 0° 275° (W) 2,987 8.3 -27.7°
Reaches altitude 10° 19:30:19 10° 275° (W) 2,076 7.2 -28.1°
Enters shadow 19:34:00 53° 267° (W) 816 4.3 -28.7°
